Stations météo

Publicité
Sete, France (7641): Température de l'air & dewpoint: 11.12.2017 03:00:00 - 17.12.2017 03:00:00 (CET)Sete, France (7641): Vitesse du vent & gusts: 11.12.2017 03:00:00 - 17.12.2017 03:00:00 (CET)Sete, France (7641): Direction du vent: 11.12.2017 03:00:00 - 17.12.2017 03:00:00 (CET)Sete, France (7641): reduced air pressure: 11.12.2017 03:00:00 - 17.12.2017 03:00:00 (CET)Sete, France (7641): visibility: 11.12.2017 03:00:00 - 17.12.2017 03:00:00 (CET)Sete, France (7641): Quantités de précipitations: 11.12.2017 03:00:00 - 17.12.2017 03:00:00 (CET)
Date & Time tt [°C] td [°C] ff [km/h] ff [knt] fx [km/h] fx [knt] dd ppp [hPa] vv [km] rr [mm]
17.12.2017 03:00:00 4,4 -1,2 18 10 42 23 NNW 1024,4 - 0,0
17.12.2017 02:00:00 4,6 -1,6 14 8 48 26 NW 1024,1 - 0,0
17.12.2017 01:00:00 4,9 -2,2 15 8 45 25 NW 1023,7 - 0,0
17.12.2017 00:00:00 5,5 -1,9 26 14 55 30 NW 1023,3 - 0,0
16.12.2017 23:00:00 5,3 -1,4 13 7 31 17 WNW 1022,8 - 0,0
16.12.2017 22:00:00 5,6 -0,7 10 5 49 27 NNW 1022,3 - 0,0
16.12.2017 21:00:00 5,8 -0,9 13 7 36 20 NW 1021,6 - 0,0
16.12.2017 20:00:00 5,7 -0,6 13 7 39 21 NW 1021,1 - 0,0
16.12.2017 19:00:00 5,9 -0,4 14 8 41 22 WNW 1019,8 - 0,0
16.12.2017 18:00:00 6,3 -0,5 19 10 46 25 NW 1019,3 - 0,0
16.12.2017 17:00:00 7,4 -0,8 17 9 34 19 NW 1018,7 - 0,0
16.12.2017 16:00:00 8,0 -1,3 11 6 39 21 NW 1017,8 25 0,0
16.12.2017 15:00:00 8,0 -1,3 16 9 47 26 WNW 1017,1 - 0,0
16.12.2017 14:00:00 8,7 -1,2 21 11 47 26 WNW 1016,7 - 0,0
16.12.2017 13:00:00 9,1 -0,5 12 6 44 24 WNW 1016,4 - 0,0
16.12.2017 12:00:00 8,5 -0,8 18 10 41 22 WNW 1015,8 - 0,0
16.12.2017 11:00:00 7,2 -1,0 18 10 45 24 NW 1015,4 - 0,0
16.12.2017 10:00:00 6,4 0,1 10 5 32 18 WSW 1015,0 25 0,0
16.12.2017 09:00:00 5,6 -1,1 12 7 29 16 WNW 1014,2 - 0,0
16.12.2017 08:00:00 4,7 -1,3 3 2 24 13 ENE 1013,8 - 0,0
16.12.2017 07:00:00 5,2 -1,5 12 6 27 15 WNW 1012,3 - 0,0
16.12.2017 06:00:00 5,4 -1,3 7 4 33 18 NW 1011,8 - 0,0
16.12.2017 05:00:00 5,5 -0,8 5 3 32 17 W 1011,3 - 0,0
16.12.2017 04:00:00 5,2 -0,6 5 3 42 23 WNW 1011,2 - 0,0
16.12.2017 03:00:00 6,1 0,2 21 12 50 27 WNW 1009,1 - 0,0
16.12.2017 02:00:00 6,4 1,1 16 9 51 27 WNW 1009,0 - 0,0
16.12.2017 01:00:00 6,5 2,0 11 6 32 18 NW 1008,7 - 0,0
16.12.2017 00:00:00 6,8 2,1 7 4 27 15 NW 1008,5 20 0,0
15.12.2017 23:00:00 7,2 1,7 10 5 40 21 W 1008,0 - 0,0
15.12.2017 22:00:00 7,1 1,2 16 9 45 24 WNW 1007,1 - 0,0
15.12.2017 21:00:00 7,7 1,5 19 11 50 27 WNW 1006,0 - 0,0
15.12.2017 20:00:00 7,5 2,6 13 7 40 22 W 1005,8 - 0,0
15.12.2017 19:00:00 8,4 3,0 13 7 39 21 WNW 1005,3 30 0,0
15.12.2017 18:00:00 8,8 2,1 9 5 23 13 WNW 1005,5 - 0,0
15.12.2017 17:00:00 9,4 1,5 8 4 31 17 W 1005,5 - 0,0
15.12.2017 16:00:00 9,8 1,2 13 7 45 24 NW 1005,2 - 0,0
15.12.2017 15:00:00 10,4 1,2 16 9 46 25 WNW 1004,7 - 0,0
15.12.2017 14:00:00 10,8 1,6 5 3 44 24 W 1004,8 30 0,0
15.12.2017 13:00:00 9,3 2,4 5 3 22 12 N 1005,4 - 0,0
15.12.2017 12:00:00 8,4 3,0 10 5 22 12 SW 1005,7 - 0,0
15.12.2017 11:00:00 7,5 2,4 11 6 26 14 NW 1006,8 - 0,0
15.12.2017 10:00:00 7,2 2,5 11 6 34 18 W 1006,7 30 0,0
15.12.2017 09:00:00 6,7 3,5 11 6 31 17 W 1006,1 20 0,2
15.12.2017 08:00:00 7,0 3,1 9 5 36 19 NNW 1006,1 - 0,2
15.12.2017 07:00:00 7,8 2,5 18 10 45 24 NNW 1005,7 - 0,0
15.12.2017 06:00:00 9,6 6,1 14 8 43 23 NNW 1005,0 - 0,0
15.12.2017 05:00:00 10,0 6,5 16 9 42 23 WSW 1004,3 - 0,0
15.12.2017 04:00:00 10,0 6,9 15 8 41 22 W 1005,0 - 0,0
15.12.2017 03:00:00 10,1 7,5 16 9 41 22 SW 1005,9 - 0,0
15.12.2017 02:00:00 10,4 7,6 14 8 38 21 WSW 1006,1 - 0,0
15.12.2017 01:00:00 11,3 7,6 18 10 40 22 WSW 1007,1 - 0,0
15.12.2017 00:00:00 12,2 7,9 18 10 46 25 SW 1007,7 - 0,0
14.12.2017 23:00:00 12,0 8,1 19 10 41 22 SW 1008,2 - 0,0
14.12.2017 22:00:00 11,4 7,9 14 8 41 22 WSW 1008,9 - 0,0
14.12.2017 21:00:00 11,6 8,1 19 11 39 21 SW 1009,1 - 0,0
14.12.2017 20:00:00 11,5 7,6 17 9 41 22 WSW 1009,1 - 0,0
14.12.2017 19:00:00 12,0 7,1 15 8 34 19 SW 1009,1 - 0,0
14.12.2017 18:00:00 12,6 6,4 11 6 41 22 W 1009,8 - 0,0
14.12.2017 17:00:00 13,1 6,2 13 7 43 23 SW 1010,3 - 0,0
14.12.2017 16:00:00 14,1 5,7 14 8 34 18 W 1010,5 - 0,0
14.12.2017 15:00:00 14,3 5,6 14 7 37 20 WSW 1011,0 - 0,0
14.12.2017 14:00:00 14,6 6,4 16 8 39 21 W 1011,4 25 0,0
14.12.2017 13:00:00 14,6 6,7 18 10 38 20 WSW 1012,3 - 0,0
14.12.2017 12:00:00 12,9 7,3 12 6 27 14 WSW 1013,1 - 0,0
14.12.2017 11:00:00 12,2 7,3 9 5 28 15 WSW 1014,3 - 0,0
14.12.2017 10:00:00 12,1 7,6 15 8 40 22 WNW 1014,1 - 0,0
14.12.2017 09:00:00 10,9 7,9 15 8 41 22 W 1013,8 - 0,0
14.12.2017 08:00:00 10,4 8,0 12 6 35 19 WSW 1013,4 - 0,0
14.12.2017 07:00:00 10,1 7,7 12 6 31 17 WSW 1013,5 20 0,0
14.12.2017 06:00:00 10,2 8,1 11 6 21 12 SW 1013,4 - 0,0
14.12.2017 05:00:00 10,1 7,9 10 6 25 13 WSW 1013,9 - 0,0
14.12.2017 04:00:00 10,1 7,5 8 4 19 10 WNW 1013,7 - 0,0
14.12.2017 03:00:00 9,0 6,3 7 4 20 11 NNW 1014,3 - 0,0
14.12.2017 02:00:00 9,6 6,5 9 5 19 11 WSW 1014,0 - 0,0
14.12.2017 01:00:00 9,7 6,4 9 5 29 16 WSW 1014,5 - 0,0
14.12.2017 00:00:00 10,1 5,9 13 7 30 16 SW 1015,1 - 0,0
13.12.2017 23:00:00 8,9 4,7 7 4 19 10 SSW 1016,0 - 0,0
13.12.2017 22:00:00 9,5 5,7 11 6 16 9 SW 1016,3 - 0,0
13.12.2017 21:00:00 9,2 5,2 6 3 12 6 SSW 1016,9 - 0,0
13.12.2017 20:00:00 9,0 5,2 5 3 10 5 SW 1017,1 - 0,0
13.12.2017 19:00:00 8,7 4,7 2 1 10 5 WNW 1017,2 - 0,0
13.12.2017 18:00:00 8,7 4,1 2 1 12 7 W 1017,6 - 0,0
13.12.2017 17:00:00 8,8 3,8 9 5 16 9 SW 1018,3 20 0,0
13.12.2017 16:00:00 8,9 2,9 9 5 22 12 SW 1018,5 - 0,0
13.12.2017 15:00:00 9,1 1,7 13 7 21 11 SSW 1018,9 - 0,0
13.12.2017 14:00:00 8,5 1,2 12 6 24 13 SSW 1019,4 - 0,0
13.12.2017 13:00:00 9,4 -0,8 10 6 23 12 SW 1020,7 - 0,0
13.12.2017 12:00:00 8,8 -1,6 9 5 23 12 W 1021,1 - 0,0
13.12.2017 11:00:00 7,4 -1,3 9 5 21 11 W 1021,9 20 0,0
13.12.2017 10:00:00 7,2 -0,5 8 4 16 9 W 1022,1 - 0,0
13.12.2017 09:00:00 6,8 -0,4 13 7 28 15 NW 1022,0 - 0,0
13.12.2017 08:00:00 6,1 -0,6 20 11 27 15 NNW 1022,1 - 0,0
13.12.2017 07:00:00 5,7 -0,8 15 8 23 12 NW 1022,4 - 0,0
13.12.2017 06:00:00 6,2 -1,2 16 9 24 13 NW 1022,0 - 0,0
13.12.2017 05:00:00 6,1 -2,3 18 10 33 18 NW 1021,7 - 0,0
13.12.2017 04:00:00 5,9 -2,7 23 12 42 23 NW 1021,7 - 0,0
13.12.2017 03:00:00 4,4 -2,3 21 11 32 17 NW 1021,9 - 0,0
13.12.2017 02:00:00 4,9 -1,6 23 12 38 20 NW 1021,9 - 0,0
13.12.2017 01:00:00 4,1 -0,7 16 9 37 20 N 1021,8 - 0,0
13.12.2017 00:00:00 4,9 -0,5 23 12 38 20 WNW 1021,6 - 0,0
12.12.2017 23:00:00 4,1 -0,5 13 7 29 16 NNW 1021,3 - 0,0
12.12.2017 22:00:00 4,6 -0,6 12 7 33 18 NNW 1020,7 - 0,0
12.12.2017 21:00:00 5,2 -0,2 17 9 35 19 NW 1020,3 - 0,0
12.12.2017 20:00:00 5,7 0,0 18 10 36 19 NW 1019,6 - 0,0
12.12.2017 19:00:00 6,0 -0,3 14 8 34 19 WNW 1018,7 - 0,0
12.12.2017 18:00:00 6,7 -0,3 19 10 36 19 NW 1017,5 - 0,0
12.12.2017 17:00:00 7,8 0,5 11 6 32 18 NW 1016,7 - 0,0
12.12.2017 16:00:00 8,8 1,0 14 7 38 20 NW 1015,8 - 0,0
12.12.2017 15:00:00 8,7 1,4 14 8 36 19 NW 1015,0 - 0,0
12.12.2017 14:00:00 8,7 1,1 18 10 48 26 NW 1014,4 - 0,0
12.12.2017 13:00:00 9,0 2,5 8 4 28 15 NW 1014,1 - 0,0
12.12.2017 12:00:00 8,7 3,5 7 4 22 12 W 1013,9 - 0,0
12.12.2017 11:00:00 7,6 3,4 12 7 27 15 W 1013,5 - 0,0
12.12.2017 10:00:00 6,8 2,9 12 6 21 11 W 1012,7 - 0,0
12.12.2017 09:00:00 7,8 2,3 8 4 18 10 NW 1011,5 - 0,0
12.12.2017 08:00:00 8,1 2,5 13 7 29 15 NW 1010,4 - 0,0
12.12.2017 07:00:00 6,8 2,5 17 9 40 22 NNW 1008,8 20 0,0
12.12.2017 06:00:00 6,3 2,4 18 10 31 17 WNW 1007,6 - 0,0
12.12.2017 05:00:00 6,0 2,6 18 10 29 16 WNW 1006,7 - 0,0
12.12.2017 04:00:00 5,7 3,4 13 7 22 12 W 1006,1 15 0,0
12.12.2017 03:00:00 6,0 3,2 10 6 27 14 W 1005,3 - 0,0
12.12.2017 02:00:00 6,2 3,4 9 5 32 17 WSW 1004,0 - 0,0
12.12.2017 01:00:00 6,6 3,6 13 7 35 19 W 1002,7 - 0,0
12.12.2017 00:00:00 6,9 3,7 14 7 37 20 W 1001,7 - 0,0
11.12.2017 23:00:00 6,7 3,7 14 8 35 19 W 1000,3 - 0,0
11.12.2017 22:00:00 7,0 4,5 12 7 28 15 SW 999,2 - 0,0
11.12.2017 21:00:00 6,7 4,5 13 7 27 15 SW 998,1 - 0,0
11.12.2017 20:00:00 7,0 4,8 13 7 25 13 WSW 996,7 - 0,0
11.12.2017 19:00:00 7,0 5,3 11 6 25 14 WSW 995,5 - 0,0
11.12.2017 18:00:00 7,5 6,0 13 7 29 16 WSW 993,9 - 0,2
11.12.2017 17:00:00 7,9 6,4 10 5 23 12 SW 992,8 - 0,6
11.12.2017 16:00:00 8,5 6,8 12 7 29 16 WNW 991,0 9 0,6
11.12.2017 15:00:00 8,7 6,5 9 5 34 18 NW 989,8 - 0,8
11.12.2017 14:00:00 8,9 6,7 14 8 33 18 NW 989,1 - 1,4
11.12.2017 13:00:00 10,1 6,4 17 9 32 17 NW 988,3 9 0,0
11.12.2017 12:00:00 9,6 7,5 11 6 27 14 W 988,1 - 0,0
11.12.2017 11:00:00 10,0 7,8 16 8 34 18 WNW 987,5 8 0,0
11.12.2017 10:00:00 10,2 8,5 15 8 35 19 W 986,9 8 0,0
11.12.2017 09:00:00 12,2 9,0 18 10 43 23 WNW 985,1 - 0,0
11.12.2017 08:00:00 13,5 10,8 20 11 42 23 SSW 983,5 - 0,0
11.12.2017 07:00:00 13,5 10,3 18 10 40 21 SSW 983,6 - 0,0
11.12.2017 06:00:00 13,0 10,7 22 12 45 25 SSW 984,1 - 0,0
11.12.2017 05:00:00 10,3 8,4 6 4 27 14 E 985,1 - 0,0
11.12.2017 04:00:00 8,8 7,4 11 6 29 16 N 986,7 - 0,0
11.12.2017 03:00:00 8,3 7,5 21 11 37 20 N 988,2 - 0,0

tt = Température de l'air
td = dewpoint
ff = Vitesse du vent
fx = gusts
dd = Direction du vent
ppp = reduced air pressure
vv = visibility
rr = Quantités de précipitations

stations d'obs. à proximité